GFSGBSN_sfc_temp_000.txt.gz
Temp
60 60 60 60 60 60 60 60 59 58 57 57 57 57 58 58 58 58 57 57 57 57 57 58 58 58 68 77 75 87 70 76 84 85 81 79 77 76 70 72 73 70 69 71 72 71 71
59 59 59 59 59 60 60 59 58 58 57 57 57 57 57 57 58 58 57 57 57 56 57 58 58 58 81 69 85 87 85 85 86 85 83 82 77 80 73 71 71 70 70 70 72 71 71
60 59 59 59 59 59 59 58 58 58 57 57 57 57 57 57 57 57 57 57 57 56 57 58 59 72 79 74 87 89 86 84 86 84 80 80 80 76 74 69 71 70 66 68 69 70 69
59 59 60 59 58 58 58 58 58 58 58 57 57 57 56 56 56 57 57 57 56 57 58 58 58 80 74 85 90 87 88 85 86 85 83 81 82 77 72 72 69 66 67 63 68 69 69
59 59 59 59 58 58 58 58 57 58 57 57 57 56 56 56 56 56 56 56 56 57 58 59 77 81 72 83 81 86 85 80 82 83 82 81 80 72 72 68 65 66 60 59 63 69 67
60 59 59 59 59 58 58 58 57 57 56 56 56 56 56 56 55 55 55 57 57 60 69 76 81 76 78 73 79 81 85 82 78 79 78 76 76 72 71 68 56 56 57 59 58 67 66
59 59 59 59 59 59 59 58 57 56 56 56 56 56 56 56 56 55 63 78 79 76 79 71 71 71 74 80 83 81 80 79 80 75 67 69 68 60 62 63 61 60 58 60 65 65 60
59 59 59 59 59 59 59 59 57 56 56 56 55 55 55 56 56 57 74 76 67 72 68 73 73 74 75 76 72 77 83 74 71 65 68 67 60 63 64 63 61 61 59 60 63 65 61
58 58 58 58 59 59 59 58 57 56 56 55 55 55 55 55 57 67 73 68 70 71 70 69 72 72 72 76 68 70 75 71 66 63 63 60 61 64 62 61 59 61 58 58 56 61 66
58 58 58 58 58 58 57 57 57 56 56 55 55 54 54 55 67 71 69 69 71 69 64 61 67 72 74 73 66 73 74 68 66 61 62 62 64 61 61 59 59 55 59 58 57 55 54
58 58 58 58 57 56 56 56 56 56 56 55 54 54 55 60 70 73 67 70 70 69 46 61 66 79 74 68 67 70 72 70 61 60 61 58 59 59 58 57 59 56 60 58 55 53 53
58 58 58 57 56 56 56 55 55 55 55 54 54 55 56 69 70 66 69 69 70 57 43 57 65 63 64 66 65 69 68 70 66 61 62 60 64 62 60 62 59 61 59 59 54 53 44
57 58 57 57 56 56 55 55 55 55 55 54 54 55 65 69 68 67 69 70 56 50 57 55 57 61 60 58 60 61 59 58 57 53 53 59 59 62 61 59 59 61 56 47 45 45 46
57 57 57 56 56 56 55 55 55 54 54 54 54 57 58 67 71 67 70 62 49 50 54 60 59 59 56 58 58 59 57 57 59 56 55 50 50 58 60 57 53 53 53 44 31 40 45
56 56 56 56 56 55 55 55 55 54 54 53 55 71 70 66 67 68 68 54 50 54 58 56 58 55 54 56 56 57 55 54 56 58 50 49 51 59 57 59 58 52 51 54 44 38 37
56 56 56 56 55 54 54 54 54 54 54 54 74 72 68 65 66 68 59 49 55 58 59 58 52 54 51 53 53 54 53 56 55 58 59 52 45 55 57 58 58 55 57 45 47 32 32
55 55 56 56 54 54 54 54 54 54 54 54 71 69 67 66 66 68 52 53 57 60 60 57 54 52 52 51 52 52 52 56 58 57 59 56 48 51 57 56 53 53 51 50 49 45 36
56 54 54 55 55 54 54 54 54 54 53 61 67 63 67 66 64 59 54 58 52 59 61 59 58 56 53 53 51 52 51 55 59 59 53 55 50 42 49 59 56 55 51 50 41 41 43
54 53 54 54 55 54 54 54 54 53 53 66 67 67 69 66 50 51 56 55 57 58 57 57 54 56 56 53 48 52 53 57 59 58 54 55 46 39 48 51 53 50 52 52 50 42 36
53 53 54 54 55 55 54 54 53 53 53 67 67 49 62 63 61 59 55 53 53 57 56 56 55 56 55 52 54 50 52 56 57 58 51 53 49 43 40 48 54 47 51 53 47 34 39
53 53 53 53 54 54 54 54 53 53 53 69 62 53 54 51 53 56 56 55 52 51 57 58 54 54 52 45 47 48 53 55 58 53 54 54 41 48 49 51 49 47 47 48 45 45 36
53 53 53 53 53 54 53 53 53 53 54 66 61 58 56 53 53 56 50 52 52 53 54 53 52 53 53 49 51 48 52 52 50 55 52 53 40 41 38 47 47 43 47 47 48 48 49
53 53 53 53 53 53 52 52 52 53 57 67 60 59 59 43 50 52 54 54 54 56 55 58 56 54 47 54 58 59 59 58 57 52 49 45 40 36 33 44 39 32 40 47 51 54 50
53 53 53 53 53 52 50 50 51 52 56 67 63 64 40 47 48 54 54 56 55 55 53 57 57 52 58 60 60 59 58 56 55 55 55 40 36 37 33 35 29 52 60 58 52 52 54
53 53 53 53 53 52 53 53 52 51 52 65 61 62 50 37 53 50 52 54 54 55 53 55 58 61 59 56 45 37 40 37 44 51 51 51 40 35 32 35 43 49 55 51 47 47 57
52 52 53 53 52 52 52 52 52 51 52 61 62 61 59 40 45 59 56 55 51 51 50 51 57 59 57 47 39 34 34 40 42 47 46 45 42 36 36 31 31 47 57 55 53 40 55
52 52 52 52 52 51 52 51 51 52 52 62 64 61 61 46 54 56 53 52 56 52 51 51 52 46 54 37 35 34 36 48 37 34 35 35 34 32 32 31 39 54 53 53 35 42 51
51 51 51 51 51 51 51 51 51 51 52 56 60 62 59 45 54 55 58 56 53 54 46 51 49 45 40 35 35 36 34 42 38 46 41 39 34 32 34 32 31 57 50 41 51 55 57
50 51 51 50 50 50 51 51 51 51 51 52 53 59 58 49 50 60 63 65 62 62 57 52 52 52 49 42 38 38 33 34 35 33 47 34 41 42 44 44 58 59 54 57 59 55 55

GFSGBSN_sfc_temp_003.txt.gz
Temp
60 60 60 60 60 60 61 60 59 58 58 58 58 58 58 58 58 58 58 57 58 58 58 58 59 59 67 80 78 92 75 80 92 91 87 85 82 80 75 77 78 74 75 77 77 77 77
60 60 60 60 60 60 60 59 59 58 58 58 58 58 58 58 58 58 58 58 57 58 58 58 59 58 77 72 91 94 92 92 92 91 88 87 82 84 77 76 76 76 76 76 77 77 77
60 60 60 59 59 59 59 58 58 58 58 58 58 57 57 58 58 58 58 58 57 58 58 59 59 72 83 76 93 96 92 90 92 90 85 87 86 81 80 73 78 76 72 75 76 76 75
60 60 60 59 59 58 58 58 58 58 58 58 58 57 57 57 57 58 58 58 57 58 58 59 59 82 76 90 97 92 94 91 92 92 89 89 87 82 78 78 75 72 73 69 76 74 75
60 60 60 60 59 58 58 58 58 58 58 57 57 57 56 56 56 58 58 58 58 58 58 60 78 86 75 83 85 91 92 85 87 89 88 88 86 79 77 73 71 73 65 65 69 77 74
60 60 60 60 59 59 58 58 57 57 57 57 57 57 56 56 56 56 57 58 59 60 70 87 90 80 82 77 84 88 92 88 83 84 82 81 81 77 78 72 59 62 63 66 66 74 73
60 60 60 59 59 59 59 59 57 57 56 56 56 56 56 56 57 56 64 83 81 80 83 76 77 76 79 85 89 85 89 85 85 80 72 77 74 65 68 69 68 66 65 65 71 72 67
60 59 59 59 59 59 60 59 57 56 56 56 56 56 56 57 58 59 72 81 74 79 71 80 80 79 81 83 76 82 88 78 75 70 74 72 65 69 71 69 68 69 66 65 70 73 69
59 59 59 59 59 59 59 58 57 56 56 55 55 56 56 56 58 71 81 75 80 81 75 73 77 77 77 81 73 75 80 77 72 69 69 66 67 70 68 68 64 67 63 62 62 68 73
59 58 58 58 58 58 57 57 57 56 56 55 55 55 55 56 67 82 76 78 79 77 67 66 71 76 79 78 71 80 80 74 72 66 68 68 69 66 66 64 64 61 66 64 62 61 58
58 58 58 57 57 56 56 56 56 56 56 55 55 55 55 60 77 80 75 79 78 76 48 66 71 84 80 72 73 74 80 75 66 66 67 62 64 64 64 62 65 61 66 63 63 59 60
58 58 58 57 56 56 56 56 55 55 55 55 55 56 58 74 77 74 78 77 75 60 47 62 70 68 69 71 71 75 74 76 73 67 69 66 70 68 65 67 65 67 66 67 65 60 50
58 58 58 57 56 56 56 56 55 55 55 54 55 55 70 78 74 76 76 75 60 52 64 61 63 67 65 64 66 67 66 65 63 58 59 66 65 68 67 64 67 67 61 50 48 50 49
57 57 57 57 56 56 55 55 55 55 55 54 55 56 64 76 79 75 75 67 51 57 61 65 65 64 61 64 64 65 64 64 65 64 61 56 53 63 66 61 57 60 58 47 35 43 48
56 57 57 57 56 56 55 55 55 55 54 54 53 78 76 73 74 75 72 55 54 61 64 62 63 60 60 62 61 63 61 60 62 63 55 53 56 67 63 64 64 58 54 60 47 49 42
57 57 57 57 56 55 55 55 55 55 55 55 80 80 73 73 74 73 66 54 61 64 65 64 57 60 56 59 59 60 59 62 60 63 65 57 48 61 63 65 64 60 63 49 50 34 36
57 56 56 57 55 55 55 55 54 55 54 55 75 73 72 75 73 74 59 58 62 66 66 62 59 58 58 57 58 58 57 60 63 62 64 61 52 55 62 60 58 58 56 55 56 50 38
56 56 55 55 55 55 55 54 54 54 54 61 74 68 73 75 69 69 62 63 54 64 67 64 64 61 58 58 56 56 55 59 64 64 57 59 53 45 53 65 64 61 58 57 45 44 47
55 55 55 55 55 55 55 54 54 53 53 74 74 73 77 73 54 56 62 61 63 63 62 62 59 61 61 58 52 56 57 61 64 62 58 60 50 42 52 58 60 58 62 60 56 50 41
54 54 54 55 55 55 55 55 54 54 54 68 73 55 69 72 71 65 61 59 57 62 61 62 60 62 59 57 60 54 56 61 61 62 52 56 52 46 42 49 56 50 55 58 55 39 44
53 53 54 54 55 55 55 55 54 54 53 67 73 61 62 56 60 64 63 62 58 56 62 63 59 59 57 48 51 53 58 60 62 56 58 57 45 51 53 56 55 54 53 54 52 53 43
53 53 53 54 54 55 55 54 54 53 53 73 67 65 66 62 62 63 55 59 58 58 60 58 57 59 59 54 55 52 57 57 56 61 57 57 42 45 40 50 52 47 53 54 54 55 55
53 53 53 53 53 54 54 54 53 53 56 74 72 70 66 52 58 58 58 60 59 61 60 63 62 59 53 58 63 63 63 62 61 57 53 49 40 37 34 48 41 34 43 51 54 58 57
53 53 53 53 53 54 51 51 52 52 53 72 71 72 45 51 56 59 60 62 60 61 57 62 63 58 62 67 66 64 62 61 61 61 62 44 38 36 33 37 30 53 62 61 56 59 60
53 53 53 53 53 53 51 54 53 53 55 70 71 68 55 39 58 59 59 61 62 62 59 60 64 67 66 62 47 38 43 37 46 58 58 59 42 34 34 37 44 49 58 55 50 49 59
52 53 53 53 53 52 52 53 52 52 53 67 71 70 65 42 51 63 61 62 56 56 56 56 65 66 62 52 40 34 37 41 45 52 55 53 47 36 36 31 29 50 59 61 60 44 57
52 52 52 53 52 51 52 52 52 52 52 63 70 68 66 48 60 63 58 58 62 59 55 56 57 51 60 41 33 34 37 50 38 35 37 37 35 33 33 32 40 56 62 59 38 44 56
51 51 51 52 52 51 51 51 51 51 52 58 66 68 64 54 61 63 65 61 61 58 50 56 54 51 45 37 35 37 35 45 44 50 44 41 35 33 34 33 32 62 59 42 50 57 58
50 50 51 51 51 51 51 51 51 51 51 53 57 66 65 55 60 65 68 69 68 67 62 59 55 56 53 45 40 39 35 35 35 33 53 39 47 44 46 46 60 64 59 62 63 59 55

GFSGBSN_sfc_temp_006.txt.gz
Temp
61 61 61 61 60 60 61 60 59 58 58 58 58 58 59 59 59 59 59 58 58 59 59 59 59 60 69 77 78 92 78 81 89 92 88 85 82 80 75 77 78 74 75 77 78 78 77
61 61 61 60 60 60 60 59 59 58 58 58 58 58 58 59 59 59 59 58 58 58 59 59 60 58 73 71 92 95 93 93 93 91 88 86 82 83 78 76 74 77 77 77 78 78 79
61 61 60 60 59 59 59 59 58 58 58 58 58 58 58 58 59 59 59 59 58 58 59 59 60 71 81 77 94 96 94 91 93 90 84 87 87 82 80 74 79 77 71 75 76 77 75
61 61 61 60 59 59 59 58 58 58 58 58 58 57 57 57 58 58 59 58 58 58 59 59 59 73 76 91 95 93 95 91 93 93 89 89 88 82 78 80 76 72 73 67 76 76 76
61 61 60 60 59 59 58 58 58 58 58 57 57 57 57 57 57 59 59 58 58 59 59 60 71 75 75 84 86 92 92 86 89 90 90 90 86 79 77 70 69 72 63 65 69 79 75
61 61 60 60 59 59 59 59 58 57 57 57 57 57 57 57 57 60 59 59 60 62 67 79 87 79 82 78 85 88 93 89 84 84 83 82 79 73 74 68 54 59 61 65 65 73 72
60 60 60 59 59 59 59 59 57 57 56 57 57 57 57 57 58 58 65 79 78 76 83 76 78 77 80 86 90 86 88 86 85 81 72 78 70 63 67 69 69 68 65 64 69 74 69
60 59 59 59 59 59 59 59 57 56 56 56 56 56 57 58 59 61 70 78 75 77 71 81 81 80 83 85 77 82 87 78 76 70 75 72 64 69 72 72 68 68 65 63 67 71 68
59 59 59 59 59 58 59 59 57 56 56 55 56 56 57 57 59 67 80 77 83 81 71 74 79 78 78 82 74 75 80 77 73 70 70 66 67 72 70 68 64 65 61 60 59 66 71
59 58 58 58 58 57 57 57 57 57 56 55 55 56 56 57 68 82 77 81 82 79 64 67 73 77 81 80 72 82 82 75 73 67 68 68 71 68 67 66 64 57 67 63 61 59 53
59 58 58 58 57 56 56 56 56 56 56 55 55 56 56 57 78 79 77 81 80 75 47 68 73 85 81 74 75 75 83 77 68 68 68 63 66 64 64 63 66 60 66 63 64 61 59
59 59 58 57 57 56 56 56 56 56 55 55 55 56 59 75 77 77 80 78 75 57 46 63 72 70 71 73 72 77 76 79 76 68 70 68 72 69 66 68 69 68 65 65 67 60 47
58 58 58 57 56 56 56 56 55 55 55 55 55 56 70 79 72 78 77 74 58 51 67 63 65 69 67 66 68 69 67 65 61 56 59 67 66 69 68 63 69 65 58 46 43 46 45
57 57 57 57 57 56 56 56 55 55 55 54 55 54 67 76 78 76 74 66 50 58 63 68 67 66 63 65 66 67 66 63 66 62 59 55 52 64 67 62 57 59 57 44 34 39 42
57 57 57 58 57 56 55 55 55 55 55 54 54 75 76 73 76 75 70 55 54 62 65 64 66 61 62 64 63 64 62 61 61 62 53 52 55 68 66 66 63 58 53 60 46 45 40
57 57 57 58 56 55 55 55 55 55 55 54 75 78 72 75 75 71 64 53 62 66 68 66 58 61 58 60 60 62 61 63 61 63 65 59 47 63 65 67 66 60 64 47 46 33 34
57 57 57 57 56 55 55 55 55 55 55 55 72 72 72 77 73 70 58 60 63 68 68 63 61 60 59 58 60 59 59 62 64 63 65 62 53 53 60 60 57 57 54 55 55 48 37
56 56 56 56 56 55 55 55 55 54 55 60 73 64 75 76 66 66 61 65 54 66 69 65 65 63 59 60 57 58 56 60 65 64 57 59 52 43 51 63 66 62 57 57 40 40 44
55 55 55 55 56 55 55 55 54 54 54 67 72 71 77 73 53 57 64 63 66 65 64 64 61 63 63 59 52 58 59 63 64 62 55 57 49 40 48 57 61 56 59 59 56 45 40
54 54 54 55 56 56 56 55 55 54 54 66 72 51 68 72 72 65 62 61 58 64 63 65 63 64 61 58 61 55 57 62 63 62 53 56 51 46 39 46 54 48 53 55 53 40 42
54 53 54 54 55 55 55 55 54 54 54 66 72 62 65 56 61 65 64 63 60 58 64 65 61 61 58 47 51 54 59 59 63 55 61 56 43 49 51 53 52 49 49 52 50 50 42
53 53 53 54 54 55 55 55 54 54 53 71 64 64 67 63 65 64 55 61 60 61 61 60 57 61 60 55 54 50 56 56 54 61 57 56 40 41 39 48 50 45 49 51 51 52 52
53 53 53 53 54 54 56 54 53 53 55 72 72 71 64 54 60 58 59 61 61 63 62 64 62 59 49 58 62 62 61 60 59 55 52 50 41 34 35 44 40 34 43 49 52 56 55
53 53 53 54 54 54 52 52 54 53 53 70 69 70 43 50 57 58 62 63 62 63 58 63 63 57 63 69 66 62 59 59 58 58 60 45 37 34 32 33 28 50 60 57 53 56 58
53 53 53 54 54 54 51 53 55 54 53 67 71 67 53 37 58 60 61 61 63 63 61 61 64 64 66 62 44 36 42 38 43 58 58 59 38 35 32 34 42 47 53 52 49 48 58
52 53 53 53 53 52 52 54 54 53 54 62 70 70 63 41 49 63 60 62 54 54 56 60 66 68 63 49 39 34 36 41 44 50 56 50 41 39 36 31 28 45 56 61 59 40 53
52 52 52 52 52 52 51 52 52 53 53 60 66 69 65 48 58 62 58 57 63 58 54 57 58 52 61 40 35 34 35 49 40 34 35 37 35 33 35 32 38 53 59 59 36 37 49
51 51 51 52 52 52 51 51 51 51 52 57 64 68 62 54 59 64 64 60 61 60 50 57 53 53 44 36 35 38 35 43 43 48 42 40 36 34 33 32 31 60 57 40 49 54 53
50 50 50 51 51 51 51 51 51 51 52 52 58 65 66 55 59 63 65 68 67 66 59 58 53 55 51 43 38 38 35 36 34 34 51 37 44 41 43 43 55 59 56 57 55 52 51

GFSGBSN_sfc_temp_009.txt.gz
Temp
61 61 61 61 60 60 61 60 59 58 58 58 58 58 59 59 59 59 58 58 58 58 59 59 59 59 63 66 71 83 77 78 80 81 78 77 72 69 64 66 68 64 66 69 71 71 67
61 60 60 60 60 60 60 59 59 58 58 58 58 58 58 58 59 59 58 58 58 58 59 59 60 57 64 61 84 87 87 86 84 80 78 77 73 74 69 67 63 67 69 67 69 68 69
61 60 60 59 59 59 59 58 58 58 58 58 58 58 58 58 59 59 59 58 58 58 59 59 60 66 65 69 82 82 87 80 83 82 75 78 77 70 70 65 70 70 61 65 67 67 64
60 60 60 59 59 58 58 58 58 58 57 57 58 58 57 57 58 58 59 58 58 58 59 59 60 64 65 85 79 85 84 80 84 84 80 78 79 72 67 70 68 62 59 52 65 67 67
60 60 60 59 59 58 58 58 57 57 57 57 57 57 57 57 57 59 59 58 58 59 59 60 59 63 65 80 80 84 81 80 81 82 80 85 75 67 66 57 53 57 47 55 60 66 63
60 60 60 59 59 58 59 58 57 56 56 56 57 57 57 57 58 60 59 59 60 61 64 72 75 63 75 73 78 81 81 82 77 75 73 71 65 59 57 52 42 49 50 57 52 61 61
60 60 59 59 59 59 59 59 57 56 56 56 57 57 57 58 58 58 62 66 66 62 65 65 68 71 75 80 82 77 80 77 75 70 60 65 56 49 53 57 60 58 55 52 55 63 58
59 59 59 59 59 59 59 59 57 56 56 56 56 57 57 57 57 59 59 64 64 64 58 74 75 75 79 77 71 74 78 68 67 59 64 59 52 61 65 64 61 57 54 51 57 62 59
59 58 58 59 58 58 59 58 57 56 56 55 56 56 57 56 57 61 66 64 71 68 57 69 74 73 73 75 68 68 71 68 63 62 60 54 59 68 65 60 57 54 52 51 51 57 59
58 58 58 58 57 57 57 57 57 57 55 55 55 56 55 56 63 67 63 70 70 65 51 62 67 71 76 74 66 74 73 67 64 59 60 58 66 63 60 59 58 50 59 57 55 49 43
58 58 57 57 57 56 56 56 56 56 55 55 55 56 56 57 62 63 67 69 68 64 34 64 67 76 74 68 68 69 73 68 59 61 59 56 57 56 57 57 60 54 59 56 55 49 45
58 58 57 57 56 56 56 55 55 55 55 55 55 56 56 65 62 63 67 66 63 46 34 59 69 66 65 68 67 71 69 69 68 62 62 59 64 60 57 62 61 62 56 55 53 49 35
57 57 57 57 56 56 56 55 55 55 55 54 55 55 61 69 59 66 64 61 45 36 63 58 61 65 63 61 64 64 62 56 50 45 47 57 58 59 63 55 59 56 47 32 32 32 32
57 57 57 57 56 56 56 55 55 55 55 54 54 54 63 66 64 64 61 52 39 54 57 64 63 63 57 60 60 61 58 52 56 53 48 45 41 56 62 55 51 50 48 31 27 28 32
57 57 57 57 56 56 55 55 55 55 54 54 54 61 61 62 65 62 56 41 40 55 62 59 62 55 55 59 57 58 53 52 54 55 45 43 47 60 62 60 57 51 41 52 39 35 29
57 56 57 57 56 55 55 55 55 55 54 55 59 61 59 64 64 60 50 47 55 62 63 62 53 56 50 55 53 54 53 57 55 58 57 52 41 55 59 60 58 54 56 39 34 26 28
56 56 56 56 55 55 55 55 55 54 55 54 59 57 62 66 62 56 42 48 58 65 64 57 55 54 55 52 53 52 52 55 58 57 57 53 44 45 53 52 48 49 45 47 49 38 30
55 55 55 55 55 55 55 55 54 54 55 59 58 51 63 64 53 50 46 58 55 62 64 61 59 56 53 54 51 52 51 54 59 57 50 52 45 32 45 56 59 55 51 51 34 34 33
55 54 54 54 55 55 55 55 54 54 54 51 54 55 63 62 41 40 55 59 59 60 59 59 56 58 57 52 44 52 53 57 59 55 49 50 38 30 38 48 52 48 52 50 46 35 35
54 54 54 54 55 55 55 55 54 54 53 53 55 40 53 56 56 54 53 54 54 59 59 61 59 59 55 51 54 48 52 56 57 56 52 52 44 37 31 39 46 42 46 48 44 27 34
54 53 53 54 54 54 55 54 54 53 53 55 55 49 53 41 48 53 55 57 54 53 59 60 56 56 53 41 45 47 53 53 56 51 54 50 36 42 44 47 48 47 46 46 43 43 36
53 53 53 53 53 54 54 53 52 53 53 58 51 49 52 49 55 53 50 53 55 57 56 55 52 55 54 45 48 43 48 47 46 52 47 50 35 36 37 44 46 41 43 44 44 44 44
53 53 53 53 53 53 54 51 52 52 54 56 57 57 51 45 47 43 44 54 55 57 56 59 56 52 43 51 53 52 52 52 51 48 42 41 35 30 35 39 37 29 38 43 45 48 46
53 53 53 53 54 53 51 52 53 52 52 55 55 54 37 37 39 47 56 57 56 56 51 58 56 47 55 60 55 49 48 48 47 49 50 37 31 32 33 30 26 41 53 52 47 48 48
52 53 53 53 54 53 51 52 53 52 52 54 57 54 41 34 43 49 53 53 55 53 52 55 58 59 57 50 36 34 33 35 41 48 44 46 33 32 30 29 37 42 47 43 42 42 46
52 52 53 53 53 53 53 53 54 53 52 55 57 58 47 37 40 56 51 52 41 41 43 50 58 57 55 35 35 29 24 33 35 43 47 42 37 33 29 24 23 37 48 52 52 35 46
52 52 52 52 52 52 52 52 52 53 53 53 55 59 53 41 46 53 46 45 53 46 39 45 48 43 50 35 33 33 28 41 30 27 29 30 31 28 24 28 32 45 51 51 31 37 47
51 51 51 51 51 51 51 51 51 52 52 54 54 59 53 44 48 55 57 51 52 48 37 46 44 41 36 33 33 33 33 32 32 40 33 31 27 30 26 30 25 50 50 36 44 48 51
50 50 51 51 51 51 51 50 51 51 52 51 51 58 58 50 49 56 57 58 58 57 51 48 46 47 43 34 34 34 33 34 33 33 44 34 38 31 34 33 46 52 49 52 53 50 48

GFSGBSN_sfc_temp_015.txt.gz
Temp
60 60 60 60 60 60 60 60 59 58 57 57 57 58 58 59 59 58 58 57 58 58 58 59 59 60 59 64 65 79 72 75 77 74 72 69 66 61 57 58 60 57 58 62 63 63 59
60 60 60 59 59 60 60 59 58 57 57 57 57 57 57 58 58 58 58 57 57 57 58 59 60 59 64 58 77 77 76 79 77 74 72 71 65 64 62 59 58 61 61 62 61 61 60
60 60 59 59 59 59 59 58 57 57 57 57 57 57 57 58 58 58 58 58 57 58 58 59 60 66 63 65 73 74 78 73 73 74 70 69 69 67 62 59 64 61 57 60 59 59 58
60 60 60 59 58 58 58 57 57 57 57 57 58 57 57 57 57 57 57 57 57 58 59 60 60 63 61 78 73 77 76 75 77 76 74 73 71 66 62 63 60 56 53 48 59 58 60
60 59 59 59 58 58 57 57 57 57 57 57 57 57 57 56 57 57 57 56 57 58 59 60 63 61 61 77 74 75 75 72 74 74 72 78 70 60 59 51 48 49 42 45 53 57 56
60 59 59 59 58 58 58 57 56 56 56 57 57 57 57 56 56 56 55 57 58 58 62 66 68 60 70 67 72 74 73 72 69 69 68 66 57 53 50 48 38 42 43 48 45 54 54
60 59 59 59 58 59 59 58 56 56 56 57 57 57 56 56 56 56 60 61 61 62 64 59 61 63 66 74 74 72 71 70 67 64 55 57 52 46 47 50 52 49 46 43 48 54 52
59 59 59 59 58 58 59 58 56 56 56 56 56 57 56 56 57 58 62 60 59 61 55 66 66 66 70 69 64 69 71 63 61 53 56 53 47 54 57 56 54 50 46 45 50 54 50
58 58 58 58 57 58 58 58 56 56 55 55 56 56 56 56 57 62 61 60 65 63 55 62 66 65 67 69 62 64 66 60 58 55 52 49 53 60 57 52 51 47 45 45 46 50 49
58 57 57 57 57 57 57 57 56 56 55 55 55 55 55 58 62 59 59 62 62 62 46 56 62 66 69 66 62 67 68 62 59 52 52 52 57 55 53 51 50 44 52 50 48 44 39
58 57 57 56 57 56 55 55 56 56 55 55 55 55 56 62 61 59 61 61 61 61 30 58 61 70 66 63 61 65 66 63 53 54 53 50 52 52 51 52 52 49 53 48 47 42 39
57 57 57 56 56 55 55 55 55 55 55 55 55 55 57 61 58 57 59 58 60 43 32 53 61 59 60 61 61 62 61 63 59 55 54 52 57 54 52 55 54 55 49 47 45 42 33
57 57 57 56 56 55 55 55 55 55 55 54 54 55 61 62 58 59 58 57 43 35 56 52 54 58 56 55 57 56 53 50 45 43 42 50 51 54 56 51 54 50 41 31 32 30 31
56 56 56 56 55 55 55 55 55 54 54 54 54 57 58 60 58 58 57 50 38 46 50 57 56 56 52 54 54 53 50 45 50 47 41 39 38 50 56 50 46 45 42 29 26 26 30
56 56 56 56 55 55 55 54 54 54 54 54 57 57 56 58 59 58 53 37 38 47 54 52 54 50 49 53 52 50 46 46 48 49 41 38 41 52 53 53 51 46 39 45 34 32 27
56 55 55 55 54 54 54 54 54 54 54 56 57 55 55 58 58 56 45 42 48 55 55 54 47 49 44 48 48 47 46 50 49 51 50 45 37 48 52 53 52 49 50 36 32 22 26
55 55 55 54 54 53 54 54 54 54 54 55 57 53 58 59 59 50 39 41 52 57 57 52 49 48 47 46 46 45 45 49 52 52 51 46 41 42 47 46 43 43 40 40 41 33 27
54 54 54 54 54 53 54 54 53 53 53 56 53 48 59 58 50 41 43 52 53 55 58 55 53 51 47 47 45 45 45 49 53 51 45 46 39 31 40 49 50 47 42 41 31 32 30
54 54 53 54 54 53 53 53 53 52 53 53 51 50 58 58 39 35 49 52 53 54 53 53 50 52 51 46 41 46 47 52 54 50 45 46 36 29 37 43 46 42 43 43 38 32 32
53 53 53 53 54 54 53 51 51 52 52 54 50 41 50 49 48 48 47 48 49 54 54 55 52 53 49 46 48 43 46 51 52 51 50 49 39 35 30 37 40 37 40 42 39 27 31
53 53 53 53 54 53 50 50 51 53 52 55 48 45 47 38 45 47 49 50 49 48 53 54 50 49 47 39 40 40 45 47 50 49 48 45 35 37 39 41 41 41 40 42 37 37 33
52 52 52 52 53 52 49 50 52 52 53 52 48 46 45 43 49 48 44 47 49 50 51 48 47 48 48 43 44 39 44 42 43 46 42 43 33 34 32 39 39 37 40 39 39 39 37
52 51 50 51 53 50 49 52 52 52 54 50 48 48 47 39 41 39 40 48 50 52 51 53 51 46 39 47 50 49 49 49 47 43 39 38 32 31 28 34 32 28 34 37 39 42 40
52 52 52 52 52 49 49 51 51 52 53 52 49 47 37 34 33 42 49 50 50 49 48 51 51 46 50 53 51 48 45 44 42 42 45 33 30 29 29 32 24 40 44 45 41 42 42
52 52 52 52 52 49 49 52 51 52 53 53 50 48 39 32 40 42 47 48 48 49 47 49 51 51 50 45 36 33 33 34 36 41 39 39 32 30 29 28 33 39 43 38 37 38 43
52 52 52 52 52 50 51 52 52 51 52 53 51 48 44 37 38 48 47 46 39 36 40 45 51 50 46 32 31 25 24 31 33 38 40 37 33 28 29 27 24 35 42 45 43 32 42
51 52 52 52 52 51 52 52 52 52 52 53 52 52 48 39 43 48 43 42 46 40 35 38 44 41 43 34 30 23 26 36 29 26 27 28 30 27 27 28 29 39 45 46 28 33 44
51 51 51 51 51 51 51 51 52 52 50 53 51 53 50 41 45 50 52 48 47 43 37 43 42 38 36 31 27 27 21 31 29 35 31 30 27 25 27 25 23 44 44 36 41 41 43
51 51 51 50 50 50 51 51 51 52 52 53 50 53 52 49 49 52 53 54 54 52 46 43 43 41 39 35 34 30 31 28 29 31 38 34 37 30 33 33 43 46 46 47 47 43 40

GFSGBSN_sfc_temp_021.txt.gz
Temp
60 60 60 60 60 60 60 60 59 58 57 57 57 58 58 59 59 58 57 57 58 58 59 59 59 59 61 68 71 80 70 75 79 78 73 72 70 68 64 66 67 66 66 66 68 66 68
60 60 60 59 59 60 60 59 58 57 57 57 57 57 57 58 58 58 58 57 57 58 58 59 60 59 69 63 79 77 76 79 78 78 75 75 71 70 66 65 66 66 66 65 67 67 66
60 60 59 59 59 59 58 58 57 57 57 57 57 57 57 57 58 58 58 58 57 57 58 59 60 62 69 69 78 77 77 77 78 79 75 75 74 72 69 65 66 65 64 64 64 65 65
59 60 60 59 58 58 57 57 57 57 57 57 57 57 57 57 57 57 57 57 57 58 59 59 60 67 67 78 77 77 78 78 78 78 77 75 74 69 68 68 64 61 61 58 63 65 64
59 59 59 59 58 58 57 57 57 57 57 57 57 57 57 57 57 57 56 56 57 58 59 59 66 70 66 77 75 76 77 74 75 76 74 74 71 64 65 60 58 58 54 54 58 61 62
60 59 59 59 58 58 58 57 56 56 57 57 57 57 57 57 56 55 55 57 58 59 61 66 70 66 71 68 72 74 75 74 71 72 71 68 63 61 59 60 50 52 52 53 53 60 60
59 59 59 58 58 58 58 57 56 56 56 57 57 57 57 57 56 55 59 63 65 64 66 63 63 63 67 74 74 71 72 73 71 66 60 61 59 54 56 57 57 56 53 52 55 58 58
59 58 58 58 58 58 59 58 56 56 56 56 56 57 57 56 57 56 60 61 62 64 60 65 65 66 69 71 66 70 73 67 63 58 61 59 54 59 59 58 57 56 52 52 55 57 56
58 57 57 57 58 58 58 57 56 56 56 56 56 56 56 56 58 60 61 62 64 66 59 63 66 66 68 70 63 64 68 64 60 56 55 54 57 59 58 55 54 53 53 51 51 54 55
57 57 57 57 57 57 56 56 56 56 56 56 56 56 56 58 62 60 61 64 62 64 49 55 62 68 69 68 62 68 67 66 61 56 57 57 59 56 55 54 54 49 55 53 51 51 49
57 57 56 56 56 56 55 55 55 55 56 56 55 57 56 61 61 60 63 61 63 61 35 58 62 73 67 64 63 66 66 65 56 55 58 54 55 54 54 54 56 53 54 51 51 49 49
57 57 56 56 56 55 55 55 55 55 55 56 55 57 58 62 59 60 60 61 61 46 36 54 62 60 61 60 59 62 60 64 62 56 57 55 60 58 57 57 56 56 52 50 49 48 43
56 56 56 56 55 55 55 55 54 54 55 55 56 57 60 60 59 59 59 58 46 38 55 52 55 58 55 54 55 56 53 51 49 49 45 52 54 57 58 55 57 55 48 42 41 41 40
56 55 55 55 55 55 55 55 54 54 54 55 55 57 57 58 58 59 59 52 40 45 50 56 56 55 52 54 53 52 51 48 52 50 45 43 44 53 56 54 51 50 48 39 33 34 38
55 55 55 55 55 55 54 54 54 54 53 55 57 56 56 58 58 58 55 41 41 47 54 54 55 51 51 53 52 51 48 48 50 50 45 42 45 54 55 55 55 50 44 48 39 36 35
55 55 55 54 54 54 54 54 54 53 53 55 57 55 57 57 58 56 47 43 49 54 55 55 48 50 47 49 49 48 48 52 51 51 53 47 41 50 53 56 55 53 52 43 41 32 31
55 55 55 54 53 53 53 53 52 53 53 54 55 54 59 57 58 52 43 44 51 56 56 54 50 48 49 48 49 47 47 52 54 53 53 50 45 47 50 48 46 48 46 44 44 39 33
54 54 54 53 52 53 53 51 50 51 53 56 52 50 58 58 51 42 44 52 52 54 57 54 53 52 49 48 47 47 46 51 53 55 49 49 43 39 45 50 52 50 46 44 38 35 37
53 53 53 53 52 53 51 51 51 52 52 55 52 52 57 58 41 38 50 52 53 53 52 53 51 52 52 47 44 48 49 52 53 53 50 50 41 36 41 46 50 46 47 44 41 38 36
53 53 53 53 52 52 50 51 51 52 53 53 51 44 51 49 48 48 48 48 49 53 52 52 51 53 50 46 48 46 48 52 52 52 48 50 42 41 37 42 44 41 43 44 43 35 37
53 53 52 52 52 51 50 51 51 52 52 54 48 46 48 41 46 48 49 50 49 48 53 53 51 51 48 41 44 44 48 50 51 50 50 49 40 41 42 44 42 41 41 42 40 42 36
52 53 52 51 51 50 50 50 51 52 52 51 49 47 45 43 48 49 44 48 49 50 51 50 48 50 50 46 48 44 48 47 47 50 47 45 39 38 35 39 39 36 41 41 41 42 41
52 53 52 51 51 50 49 50 52 52 54 51 48 49 49 39 41 43 43 49 50 51 50 53 50 48 43 50 53 52 51 49 50 48 43 42 38 34 32 35 35 33 39 40 42 43 44
52 52 51 50 51 50 49 50 51 51 53 53 49 48 39 37 37 43 49 50 49 50 48 51 52 48 52 53 52 50 46 45 46 44 46 34 34 33 32 31 28 44 48 48 45 46 48
52 52 50 51 52 49 49 51 51 51 52 52 48 49 42 33 39 44 47 47 48 47 47 49 50 50 52 49 40 35 36 35 36 39 40 41 35 32 30 30 37 43 47 45 42 44 48
51 51 52 52 51 49 49 51 51 50 52 52 49 48 46 37 41 49 47 47 42 41 42 45 50 50 48 37 35 32 32 35 38 38 40 38 36 35 31 28 27 40 47 49 48 37 46
51 51 51 51 51 49 51 51 51 50 51 53 51 51 49 40 44 49 46 45 46 43 39 40 46 43 46 34 32 33 34 38 35 30 28 31 32 32 32 30 35 44 47 49 34 39 48
51 51 51 51 51 51 51 51 51 50 50 54 52 52 51 41 46 50 52 47 47 45 41 44 43 40 37 34 34 33 31 36 35 39 34 35 31 29 29 28 27 46 47 39 47 48 48
50 50 50 50 50 50 51 51 51 51 52 53 51 52 51 48 49 50 53 54 54 53 47 43 46 42 42 36 34 32 32 30 32 34 40 35 40 37 37 37 46 48 48 51 50 45 44

GFSGBSN_sfc_temp_027.txt.gz
Temp
61 61 60 60 60 60 61 61 60 60 59 58 58 59 59 59 60 59 59 58 58 59 59 60 60 61 73 79 83 96 78 84 95 95 93 90 86 85 79 82 83 78 79 82 83 81 82
60 60 60 60 60 60 61 60 59 59 58 58 58 58 58 59 59 59 59 58 58 58 59 60 60 59 78 76 94 97 96 96 96 95 92 92 88 89 84 83 80 82 81 80 82 80 80
60 60 60 60 59 59 59 59 59 58 58 58 58 58 58 58 58 58 59 58 58 58 59 60 61 76 83 81 96 98 95 94 96 94 89 92 92 87 86 78 84 82 75 78 79 81 78
60 60 60 60 59 59 58 58 58 58 58 59 59 58 58 58 58 58 58 58 58 59 59 60 61 81 79 93 99 94 96 93 95 95 93 93 93 88 84 85 81 77 78 71 77 79 79
59 60 60 59 59 58 58 58 58 58 59 59 59 58 58 57 57 58 58 58 58 59 60 62 77 81 77 83 88 93 94 89 90 92 91 90 90 84 82 76 73 75 69 69 70 78 77
60 60 60 59 59 58 58 58 58 58 58 59 59 59 59 58 57 57 57 57 59 61 69 84 89 80 83 80 87 89 93 90 87 87 85 84 84 79 80 76 65 68 68 68 69 74 75
60 60 59 59 59 59 59 58 57 57 58 59 60 60 59 59 57 56 61 78 78 77 84 79 81 78 81 87 90 87 90 88 88 84 76 80 75 73 74 74 73 72 69 68 72 74 71
59 59 59 59 59 59 59 58 57 57 58 58 59 60 59 58 57 56 70 81 79 83 73 82 81 82 84 87 80 84 91 81 79 75 77 75 70 73 74 73 71 70 67 67 70 72 70
58 58 58 58 58 58 58 58 57 57 57 58 58 60 59 57 56 65 83 80 84 85 75 75 80 80 80 85 76 78 85 82 77 73 74 71 71 72 71 70 68 68 65 64 64 70 72
58 58 57 57 58 57 57 57 57 57 57 57 57 59 59 56 65 83 80 82 84 81 69 68 74 79 82 82 73 84 84 79 76 71 74 70 72 69 69 66 68 64 68 66 65 64 61
58 58 57 57 57 56 56 56 56 56 57 57 57 59 56 57 81 82 80 84 84 79 51 69 74 87 83 76 77 77 85 81 72 71 71 66 68 67 66 65 68 65 68 66 65 64 65
59 58 57 57 56 56 56 55 55 56 57 57 58 60 59 72 81 79 82 82 80 63 49 65 74 73 72 75 74 78 78 82 79 72 74 70 74 72 68 69 69 70 67 67 66 65 53
58 57 57 56 56 56 56 55 54 55 56 57 57 59 69 82 77 80 80 78 62 54 68 63 67 71 70 68 69 72 70 68 68 61 61 67 67 71 71 67 70 70 64 53 50 51 50
57 57 56 56 56 55 55 54 54 55 56 57 57 61 66 79 83 78 78 70 54 60 65 71 70 70 65 69 66 67 68 65 69 68 67 60 54 66 69 65 62 63 62 51 41 46 52
57 57 56 55 55 55 54 52 52 54 55 56 56 77 78 75 78 78 74 59 61 64 69 67 69 64 63 65 66 65 64 63 64 67 61 59 57 67 67 69 67 62 58 63 53 50 46
56 56 56 55 53 54 52 52 52 53 55 56 79 78 77 75 77 76 68 57 64 69 70 72 62 65 60 63 63 64 62 63 63 66 68 61 55 63 65 68 67 64 66 53 56 38 40
56 56 56 54 52 53 51 52 52 53 54 56 77 73 73 78 76 74 62 64 65 70 71 68 64 62 64 61 64 61 60 62 66 64 68 65 59 59 64 61 60 62 60 58 59 53 42
55 55 55 53 53 52 52 52 52 53 54 58 74 67 76 77 69 71 65 67 60 68 71 68 69 67 64 64 61 60 59 62 66 66 61 62 59 52 58 64 66 64 60 59 48 46 50
54 55 54 53 53 52 51 51 51 53 54 80 74 71 77 74 59 62 66 65 68 67 68 67 64 67 67 63 56 61 61 63 66 65 61 63 56 49 54 58 62 58 61 59 57 50 44
54 54 54 53 52 52 51 51 51 53 54 72 75 60 71 73 74 68 64 64 62 67 66 68 66 68 65 61 65 59 59 61 63 64 51 58 58 53 47 54 60 54 58 60 57 45 46
54 54 54 52 52 52 51 51 51 52 54 71 76 66 69 60 65 68 69 67 63 60 67 69 65 66 64 56 60 58 62 60 62 52 61 61 50 56 57 60 60 58 56 57 54 55 46
53 54 53 52 52 51 51 50 52 52 53 75 72 67 70 68 69 67 58 65 64 63 66 63 64 66 66 59 62 58 62 61 60 62 61 61 50 50 47 56 58 53 57 57 57 56 56
53 53 52 52 52 51 50 51 52 52 54 77 74 73 72 54 65 64 63 65 66 66 64 69 68 65 59 64 67 67 67 66 65 61 57 55 50 46 39 49 47 39 50 56 57 58 56
53 52 52 51 52 50 50 51 51 51 54 78 74 76 58 56 63 65 65 67 66 66 62 68 69 63 64 70 69 67 65 62 62 60 61 49 48 41 36 37 33 55 63 62 57 59 61
52 51 51 52 50 49 50 51 49 50 53 75 73 73 62 42 65 63 65 66 65 66 64 63 62 67 70 66 55 44 46 39 47 56 57 58 48 38 34 39 47 53 57 54 51 51 61
51 50 50 52 50 50 51 52 49 50 52 72 68 70 69 48 56 68 65 65 60 60 59 58 63 67 66 57 47 36 42 50 50 50 54 52 52 44 36 31 32 51 60 60 59 44 58
51 50 51 51 49 50 52 52 52 52 53 71 68 66 73 58 64 67 63 62 68 65 59 60 59 58 64 43 37 37 43 54 47 38 35 37 38 36 37 34 43 58 59 60 40 43 56
51 51 51 51 50 52 52 52 52 52 53 66 67 68 69 61 63 65 66 64 64 66 55 61 58 56 51 38 37 41 38 50 48 54 46 41 36 34 38 33 32 60 57 44 51 57 52
50 51 51 51 51 52 52 52 52 52 52 55 71 69 70 69 63 66 66 66 67 68 69 62 62 60 60 50 42 43 39 39 42 42 59 46 51 46 47 47 59 61 57 57 58 52 49

GFSGBSN_sfc_temp_030.txt.gz
Temp
61 61 61 61 61 60 61 61 60 60 60 59 59 59 59 60 60 60 59 58 58 59 59 60 60 60 68 76 82 95 80 82 87 88 89 89 85 84 78 81 82 77 79 81 82 81 81
60 60 60 60 60 60 61 60 59 60 59 58 58 58 58 59 59 59 59 58 58 58 59 60 60 60 71 71 95 98 97 96 97 95 92 92 88 89 83 81 79 81 80 80 81 80 80
60 60 60 60 60 60 60 59 58 59 58 58 58 58 58 58 58 59 59 58 58 58 59 60 61 69 78 80 96 98 97 94 96 94 89 92 93 87 86 78 85 82 74 77 78 79 77
60 60 60 60 59 59 59 58 58 59 58 58 58 58 58 58 58 58 58 58 58 59 59 60 61 74 75 94 97 95 97 94 96 96 93 94 93 87 84 85 81 75 76 67 77 79 79
60 60 60 60 59 59 58 58 58 59 59 59 59 58 58 57 58 58 58 58 58 59 60 61 68 76 76 84 88 94 95 90 91 93 92 92 90 83 82 74 70 73 65 68 70 79 78
60 60 60 60 59 59 59 58 58 58 59 59 59 59 58 58 58 58 57 58 59 60 66 78 84 77 84 81 88 90 94 91 87 87 84 83 82 76 76 72 59 64 67 69 68 73 75
60 60 60 59 59 59 59 59 58 58 58 59 60 60 59 58 58 57 59 73 74 73 80 78 80 79 82 89 91 88 91 87 87 82 73 80 72 68 72 73 73 72 70 68 73 75 71
59 59 59 59 59 59 59 59 58 58 58 59 60 61 60 59 58 57 65 76 79 82 72 83 83 82 86 89 79 84 91 80 78 71 78 74 67 73 76 75 72 71 67 67 71 73 70
59 59 59 58 59 59 58 58 57 57 58 58 58 60 60 58 57 62 77 80 87 85 74 77 82 81 81 86 78 79 84 82 77 73 74 67 70 75 73 71 68 70 66 64 64 70 73
59 59 58 58 58 58 57 57 57 58 58 58 58 60 58 56 64 81 79 85 86 83 66 67 74 79 83 83 74 85 86 80 77 72 74 70 74 71 70 67 68 63 69 67 65 63 57
59 59 58 58 57 57 56 56 56 57 58 58 58 60 57 55 69 79 81 85 85 79 48 71 75 89 84 76 78 78 87 81 73 72 72 66 68 68 67 66 69 64 69 66 65 61 62
59 59 58 57 57 56 56 55 55 57 58 58 59 62 58 69 75 81 84 83 79 59 47 65 75 74 73 76 75 79 79 83 81 73 74 70 76 72 69 70 70 71 67 67 66 62 49
58 59 58 57 56 56 55 54 55 56 58 58 58 59 63 82 75 82 80 76 59 53 71 64 68 73 71 69 71 73 71 69 67 60 60 67 68 72 72 67 71 69 62 50 46 47 46
57 58 58 57 56 56 54 52 53 55 57 58 60 59 69 81 83 79 76 67 52 62 66 74 71 71 66 69 68 69 69 64 69 68 65 59 53 66 71 66 62 64 62 48 39 40 46
57 57 58 56 55 55 53 52 53 54 56 58 57 76 77 75 78 77 71 56 60 65 71 68 70 64 63 67 67 67 65 63 64 67 60 58 57 69 68 70 68 62 56 63 52 52 43
57 57 57 56 53 53 52 52 53 53 55 57 76 75 76 77 78 73 65 57 66 72 74 73 62 67 61 64 64 65 64 66 64 67 70 63 55 65 67 69 68 64 66 52 53 37 38
56 56 57 56 52 52 52 52 52 53 55 56 73 69 72 79 76 70 59 64 67 73 74 69 67 64 66 64 66 63 62 64 68 66 70 66 60 59 65 61 59 61 59 59 58 52 40
55 55 55 55 53 52 51 52 52 53 54 60 73 62 75 77 65 68 63 69 60 69 72 70 71 69 66 66 63 62 60 62 68 68 61 63 60 51 58 66 67 64 59 59 45 45 46
55 55 55 54 52 52 51 51 51 53 54 73 70 68 75 75 58 61 67 68 71 69 70 69 66 69 70 65 58 63 60 65 68 65 58 62 56 47 52 58 63 59 62 61 58 49 42
54 54 55 54 52 52 51 51 51 53 55 68 72 59 69 70 72 67 64 64 63 70 69 71 69 70 67 63 66 60 58 62 65 63 52 58 59 54 46 53 59 54 58 61 57 43 44
54 54 54 53 52 51 51 51 51 53 54 68 72 66 70 59 64 68 69 68 64 61 69 71 66 67 65 57 61 60 62 60 63 54 61 62 51 57 58 59 59 57 57 57 54 55 44
53 54 53 53 52 51 51 51 52 53 53 69 68 67 71 68 70 67 60 65 65 67 66 64 64 67 67 60 62 59 63 62 60 62 61 62 49 49 46 58 57 51 55 56 57 57 57
53 53 53 52 52 51 50 51 52 52 55 74 75 75 72 56 66 64 63 66 67 68 66 71 70 66 58 63 65 67 67 67 66 61 58 56 49 44 39 47 44 38 48 55 57 58 56
53 53 52 52 52 50 50 51 50 50 53 72 72 75 58 57 64 65 68 69 68 67 64 70 71 63 65 72 69 68 65 63 64 62 62 48 46 40 35 37 33 54 62 60 56 58 59
52 51 52 52 50 50 50 51 50 50 51 74 73 71 60 41 64 66 67 67 67 67 66 63 64 69 71 67 55 45 44 39 48 59 58 60 46 38 35 38 46 52 57 53 50 49 59
51 50 51 52 50 50 53 52 51 52 53 71 67 69 68 49 58 70 66 66 61 60 59 58 66 70 68 55 43 37 40 50 47 49 55 56 51 42 36 31 31 50 60 62 59 41 55
50 50 50 50 50 50 53 52 52 52 53 67 67 68 71 59 66 67 64 62 68 63 57 59 59 58 65 43 34 35 42 56 46 39 35 37 38 35 37 33 41 56 60 61 39 41 52
50 50 51 49 50 53 53 52 52 52 53 63 66 69 68 61 64 68 69 66 66 65 54 60 57 57 50 37 36 40 38 48 49 55 42 39 35 33 37 33 32 60 56 41 50 55 51
51 51 51 50 51 53 53 52 52 52 53 55 68 71 70 66 63 68 67 68 68 68 66 62 61 58 57 47 43 44 38 38 40 42 61 46 49 45 44 42 57 58 53 55 54 49 48

GFSGBSN_sfc_temp_033.txt.gz
Temp
61 61 61 60 60 60 61 61 60 59 59 59 58 58 59 59 60 59 59 58 58 59 59 59 60 60 61 64 70 87 72 72 75 78 77 77 75 71 66 70 72 67 68 72 73 72 72
61 60 60 60 60 60 61 60 59 58 59 59 58 58 58 58 59 59 58 58 58 58 59 59 60 60 61 63 87 88 87 86 84 79 79 79 77 80 74 70 68 71 71 70 68 71 70
61 60 60 59 59 59 60 59 59 58 58 58 58 58 58 58 58 58 58 58 58 58 59 60 60 65 66 69 83 83 88 83 86 84 80 81 80 76 73 70 74 73 65 67 68 69 67
60 60 60 59 59 59 59 58 58 58 58 58 58 58 57 57 57 57 58 57 57 58 59 59 60 63 64 86 81 87 85 84 87 87 84 83 81 75 72 73 72 66 62 56 66 69 70
60 60 60 59 59 59 58 58 58 58 58 58 58 58 57 57 57 57 57 57 58 59 59 60 60 61 67 81 80 84 82 82 84 84 80 88 78 70 71 61 55 58 51 56 61 70 66
60 60 60 59 59 59 58 58 58 58 58 58 58 58 57 57 57 56 56 58 58 58 61 70 73 64 74 75 80 82 80 84 78 77 75 72 68 61 60 56 47 53 54 60 56 61 63
60 60 59 59 59 59 59 59 58 57 57 58 59 58 58 57 57 56 54 58 62 61 65 65 69 71 78 81 83 79 83 79 77 72 61 68 58 53 57 61 63 61 59 57 57 65 60
59 59 59 59 59 59 59 59 57 57 58 59 59 59 59 58 58 57 55 62 68 69 61 75 77 76 81 80 74 77 81 70 68 62 66 61 54 64 69 66 64 63 59 55 60 65 61
59 59 59 59 58 58 59 58 57 57 58 58 58 59 59 58 57 56 61 68 76 72 60 71 76 76 76 78 71 71 75 72 67 63 63 57 62 70 68 63 61 60 56 55 56 61 60
58 58 58 58 58 58 57 57 57 57 58 58 58 59 57 55 57 64 63 74 74 68 52 63 69 73 78 77 68 78 77 71 68 62 63 61 68 67 64 61 61 54 62 61 59 53 45
58 58 58 57 57 56 56 56 56 56 58 58 58 59 55 58 59 65 70 74 72 66 33 65 70 79 76 70 70 70 75 72 63 65 63 57 60 61 60 60 63 57 62 59 57 51 47
57 58 58 57 56 56 56 55 55 56 57 58 59 59 56 60 58 67 71 70 65 48 36 61 70 68 66 69 70 72 70 73 71 66 64 61 67 63 61 65 64 65 59 58 56 50 37
57 57 59 57 56 56 55 53 53 56 57 58 59 57 60 70 62 69 67 62 45 39 65 59 61 67 65 63 66 67 64 60 55 50 51 60 60 63 66 58 62 59 50 37 36 34 35
56 57 58 57 55 55 53 53 52 54 56 58 59 56 63 69 68 67 63 54 41 57 60 67 65 65 60 63 63 64 61 54 60 58 54 49 45 58 65 59 53 55 52 34 31 30 36
56 57 57 56 54 53 52 53 52 54 56 58 57 63 63 64 68 65 57 43 47 59 66 63 64 58 58 63 60 61 56 55 57 58 50 49 50 61 64 63 60 54 46 55 44 40 33
56 56 56 56 53 53 52 52 52 53 55 55 60 61 61 66 67 61 52 48 58 67 68 66 56 60 53 57 57 56 56 60 58 60 59 56 47 60 62 62 61 57 59 43 41 30 30
56 56 56 56 52 52 51 52 52 53 54 56 59 56 62 67 64 56 44 51 62 70 67 62 60 58 59 57 58 56 55 59 61 60 60 54 50 51 58 54 51 52 50 50 49 39 30
55 55 55 55 53 52 51 52 52 53 54 58 58 50 63 64 52 50 48 61 59 65 66 65 63 63 59 59 56 56 53 56 63 61 54 54 51 40 50 58 60 56 52 52 32 37 35
54 55 55 54 52 52 51 51 51 53 53 59 55 54 64 62 42 45 57 63 65 63 63 62 60 63 62 56 51 54 54 59 61 56 50 53 47 34 43 50 56 51 55 55 50 38 34
54 54 54 54 52 52 51 51 51 53 54 59 55 46 54 56 57 54 56 57 58 64 63 66 63 63 58 55 59 51 52 58 58 56 52 53 51 43 34 44 50 45 51 52 48 30 34
54 54 54 53 51 51 51 51 52 53 54 60 58 52 56 45 51 54 57 59 57 56 62 64 59 60 57 48 53 51 53 54 56 53 54 52 42 47 48 51 51 49 48 49 46 46 35
53 54 53 52 51 51 50 50 52 52 53 57 56 56 57 53 58 55 52 57 57 60 60 58 56 60 58 52 53 50 54 52 51 54 52 54 38 39 37 48 47 43 47 47 49 49 47
53 53 53 52 51 50 50 51 49 50 54 57 60 62 56 50 53 51 52 58 60 60 59 63 60 54 48 54 56 56 56 56 56 52 49 46 38 32 30 39 36 31 41 48 49 50 48
53 53 52 51 51 50 50 50 49 49 53 59 58 58 47 43 50 54 61 61 60 61 56 58 59 52 58 61 57 54 53 53 55 54 54 40 36 32 25 30 22 45 54 52 49 50 50
52 52 52 52 51 50 51 51 52 51 53 59 59 58 47 36 53 57 60 57 57 56 54 55 58 60 61 56 42 39 35 37 43 52 50 50 35 27 28 27 37 45 51 47 44 41 48
52 50 51 52 50 49 52 52 52 52 53 60 57 58 53 42 47 61 57 56 48 47 49 52 59 59 57 42 34 29 30 38 39 44 47 48 40 31 23 19 19 39 51 55 52 32 47
50 50 50 51 49 51 52 52 52 52 54 59 57 59 57 48 54 57 52 52 56 51 43 50 50 50 51 36 33 28 31 46 35 33 29 29 33 26 22 20 31 47 53 54 32 34 44
49 49 50 50 50 53 52 52 52 52 53 58 56 60 57 49 53 58 58 54 59 53 42 50 45 44 38 33 29 32 32 35 37 44 35 31 28 30 32 27 23 53 50 39 42 45 45
49 50 49 49 51 53 52 52 52 52 53 54 56 61 61 54 52 58 58 60 58 57 54 52 49 49 46 37 36 35 34 34 33 31 48 34 39 33 36 33 46 49 47 46 47 43 43

GFSGBSN_sfc_temp_036.txt.gz
Temp
62 62 61 61 60 60 60 61 60 59 58 58 59 58 58 59 59 59 58 58 58 58 58 59 59 60 58 60 66 82 71 69 70 73 72 73 70 69 64 65 65 64 65 68 68 69 66
61 60 60 60 60 60 61 60 60 58 58 58 58 58 58 58 58 58 58 57 57 58 58 59 60 59 59 58 81 83 78 74 76 75 75 73 73 75 68 69 65 67 67 67 65 64 67
61 60 59 59 59 59 60 59 59 58 58 58 57 57 57 57 58 58 58 57 57 57 58 59 60 62 61 66 80 78 83 80 80 78 75 75 74 73 68 66 70 67 62 63 62 63 62
60 60 60 59 59 58 58 58 58 58 58 58 58 57 57 57 57 57 57 57 57 58 58 59 60 60 61 81 76 81 80 81 83 81 78 78 78 71 71 69 69 63 59 53 62 65 65
60 59 60 59 58 58 58 58 58 58 58 58 58 57 57 56 56 56 56 56 57 58 59 60 58 58 63 79 76 82 79 78 80 80 78 84 75 67 68 58 54 56 49 53 57 65 62
60 59 59 59 59 58 58 58 58 57 57 57 57 57 57 56 56 56 55 56 58 58 58 65 69 60 70 71 76 78 78 80 74 74 73 71 63 58 56 53 45 50 51 55 53 58 60
60 59 59 59 59 58 58 58 58 57 57 57 58 58 57 57 56 55 54 54 58 58 61 63 65 66 73 77 79 74 78 76 73 68 58 64 57 51 56 58 60 58 53 53 53 59 58
59 59 59 59 59 59 59 59 57 56 57 57 58 58 58 57 57 56 53 59 64 67 59 71 70 70 76 76 69 72 78 67 65 58 62 58 52 61 65 63 60 59 54 52 57 62 58
58 58 58 58 58 58 58 58 57 56 56 57 57 58 58 57 56 55 58 64 71 69 57 67 72 71 72 74 67 67 72 67 63 59 58 53 60 66 63 59 58 54 52 51 52 56 56
57 57 57 58 58 58 57 57 56 56 56 57 57 58 56 55 56 60 61 71 70 67 49 59 65 70 74 73 65 73 73 68 63 57 60 58 64 62 59 57 56 49 57 57 54 49 44
57 57 57 57 57 56 56 55 55 56 57 57 57 57 55 57 58 61 68 69 67 64 32 61 65 76 71 67 67 67 72 69 59 60 59 54 56 57 56 56 59 54 58 55 53 47 44
56 57 57 57 56 56 55 54 53 55 56 57 56 57 55 59 56 63 66 64 63 46 35 57 66 64 63 65 65 67 66 69 67 62 60 58 62 59 57 61 60 61 56 53 51 47 36
56 56 57 57 56 55 54 53 52 54 56 57 56 55 58 67 61 65 63 60 45 38 60 56 58 63 61 59 62 62 60 56 51 48 48 56 56 60 62 55 59 57 47 35 35 33 33
56 56 56 56 55 54 53 53 52 53 55 56 55 55 60 66 64 63 60 53 39 52 55 62 61 60 57 60 59 60 56 51 56 54 49 46 42 55 62 55 51 51 48 33 31 29 35
56 55 56 56 54 52 52 52 52 53 54 55 55 59 60 62 65 61 55 42 45 54 62 60 60 54 53 58 58 56 52 51 53 54 49 46 47 57 59 59 56 51 44 51 39 36 32
56 55 55 55 52 52 51 52 52 53 54 55 58 58 58 63 62 58 50 45 53 62 63 62 53 56 50 54 54 53 51 56 54 57 56 52 44 56 58 60 59 54 55 42 38 29 29
55 55 55 54 52 51 51 52 52 52 54 55 57 54 60 63 61 52 43 47 58 64 64 60 55 55 55 53 54 51 51 55 57 57 56 52 47 48 55 50 47 49 47 47 45 37 29
54 54 54 54 52 51 51 52 51 53 54 57 54 48 60 61 50 45 45 57 58 62 64 62 60 58 56 55 52 50 50 53 57 56 50 51 46 38 46 54 56 52 49 46 31 36 33
53 53 54 53 52 51 51 51 51 53 54 56 52 52 60 59 40 42 52 59 61 59 59 59 57 59 58 53 47 50 51 54 57 54 49 50 44 33 40 47 52 48 51 50 44 35 34
53 53 54 53 51 51 51 51 51 53 55 56 52 44 51 52 51 51 51 53 55 60 60 61 59 60 56 52 54 48 49 55 55 54 50 52 47 40 34 41 45 42 46 48 43 29 32
53 53 53 53 51 51 50 51 52 53 54 57 52 49 52 43 48 51 53 56 54 53 59 60 57 57 54 45 48 47 50 51 55 52 52 50 40 43 44 46 46 45 44 44 42 42 34
53 53 53 52 50 50 50 50 51 52 53 56 52 51 51 48 54 53 49 53 54 56 57 54 53 55 54 49 51 47 51 48 48 50 48 49 37 37 37 43 42 40 44 44 44 45 44
53 53 52 51 51 50 49 49 49 49 53 58 59 60 53 46 49 48 49 54 56 58 57 58 55 49 46 51 51 51 51 53 53 50 45 43 35 31 30 35 35 30 40 44 45 45 44
53 53 52 51 51 50 49 49 49 49 51 60 58 54 46 42 47 51 57 58 55 56 52 54 55 50 55 57 54 53 51 51 51 48 50 38 33 29 25 27 21 42 49 50 44 44 45
52 52 51 51 51 50 50 51 51 51 52 56 55 54 46 35 48 53 55 53 52 52 51 52 54 55 57 52 40 38 34 37 41 46 46 46 33 27 22 25 35 42 48 46 43 40 45
51 51 51 51 49 50 51 51 52 51 52 55 54 55 50 42 45 55 51 53 46 44 46 49 56 56 50 38 33 29 29 36 37 41 45 44 37 29 27 19 19 38 48 53 49 32 45
50 50 51 51 49 53 51 52 51 52 53 56 54 56 54 45 49 53 49 50 51 46 41 46 48 48 47 29 23 25 31 42 33 31 28 30 26 25 19 17 29 43 49 51 31 35 43
49 50 50 50 50 51 51 51 51 52 52 57 54 56 55 45 51 54 55 53 51 48 41 47 45 42 37 31 26 27 29 33 34 40 35 31 27 24 24 18 24 48 48 40 42 42 43
49 49 49 50 51 52 51 51 51 52 52 55 54 57 57 52 51 55 56 56 56 55 50 47 48 45 43 35 32 36 33 35 31 30 44 36 38 32 35 34 44 47 46 45 45 42 42

GFSGBSN_sfc_temp_042.txt.gz
Temp
62 62 62 62 61 60 61 60 60 59 59 58 58 58 58 59 59 58 58 57 57 58 58 58 59 59 54 55 61 70 67 67 68 69 68 66 63 64 59 62 63 61 62 64 66 66 64
62 61 61 61 60 60 61 60 59 59 58 58 58 57 57 58 58 58 57 57 57 57 57 58 59 59 53 54 73 72 69 68 69 69 68 68 67 67 64 63 62 64 61 62 63 63 64
62 61 61 60 59 59 60 59 58 58 58 58 58 57 57 57 57 57 57 57 57 57 57 58 59 58 55 62 72 72 73 72 70 70 68 70 71 68 66 63 64 63 59 62 60 59 59
61 61 61 59 59 58 58 58 58 58 58 58 58 57 57 56 56 56 57 56 56 57 57 58 59 55 55 73 70 74 73 75 72 71 72 73 73 68 64 63 63 59 55 50 56 60 58
61 61 61 60 59 58 57 57 57 58 58 58 57 57 56 56 55 55 56 56 56 57 58 59 53 54 59 75 72 77 74 72 72 72 72 77 70 62 61 55 51 53 46 47 52 58 57
61 61 60 60 59 58 58 58 57 57 57 57 57 57 56 56 55 55 54 56 57 56 57 61 62 54 65 66 72 73 72 73 69 68 69 66 59 55 52 51 43 46 47 49 49 53 56
61 61 60 59 59 58 58 58 58 57 57 57 56 56 56 56 56 54 52 50 53 52 54 57 60 61 65 72 72 69 71 70 68 65 55 59 55 50 49 52 54 53 49 47 48 54 53
60 60 59 59 59 59 59 59 58 57 56 56 56 56 56 56 56 55 50 52 59 62 53 62 63 64 68 69 63 68 73 63 61 54 56 54 49 55 56 55 54 52 48 46 50 54 53
59 59 59 59 59 59 59 59 57 57 56 55 55 56 56 56 55 52 51 59 66 63 54 61 63 64 67 69 62 63 67 62 58 55 53 51 52 59 57 54 53 50 48 45 48 49 51
59 58 58 58 58 58 58 58 57 57 56 55 55 56 55 54 52 54 56 65 64 63 46 54 60 66 68 67 60 68 67 64 60 54 54 52 57 56 54 53 51 46 52 51 49 46 41
58 57 57 57 57 57 56 56 56 56 55 55 55 55 54 56 54 56 64 64 62 61 32 56 60 69 65 63 62 63 66 64 55 54 55 49 51 52 52 50 53 49 54 50 48 43 40
58 57 57 57 56 55 55 55 55 55 52 54 55 55 54 54 52 58 62 61 60 44 33 52 61 59 59 59 59 60 62 65 61 55 55 51 55 54 52 54 54 55 50 48 44 42 35
57 57 57 56 56 55 55 55 55 53 52 54 54 54 55 60 58 60 59 57 44 36 54 50 53 57 55 53 55 55 53 51 49 45 44 51 51 54 56 51 53 50 44 33 33 32 31
56 56 56 56 56 55 55 55 54 52 51 54 54 53 54 58 60 59 57 51 37 47 49 54 54 54 51 53 52 52 50 47 51 49 44 41 40 50 56 50 48 45 44 32 32 29 33
55 56 56 56 55 55 55 54 52 52 51 54 53 51 54 59 59 58 53 40 42 47 54 54 54 49 47 52 52 50 46 46 48 48 45 42 42 52 53 53 52 45 40 45 35 33 30
54 55 55 55 55 54 54 52 52 52 52 53 53 54 55 59 58 55 48 43 49 54 55 55 47 50 45 48 48 47 46 50 49 51 51 48 41 49 52 54 53 48 50 39 35 28 28
54 55 55 55 54 53 52 52 52 51 53 54 54 51 56 57 57 51 41 45 51 58 58 55 51 48 49 48 48 45 46 49 51 51 52 47 44 44 49 45 43 46 42 40 39 34 27
54 54 54 54 53 52 51 51 52 51 53 54 50 46 56 56 48 41 43 51 53 56 57 56 55 53 50 48 46 45 46 48 51 51 47 46 42 37 42 48 49 46 43 42 30 33 30
54 54 54 54 52 51 51 51 52 51 54 53 48 49 57 56 40 39 48 53 54 54 53 54 52 54 52 47 44 45 46 51 51 49 48 48 40 33 39 44 47 43 44 41 38 33 31
53 54 54 53 52 51 51 51 51 52 53 54 49 43 48 49 46 47 48 49 50 55 54 55 53 54 50 46 48 44 45 50 50 49 49 49 41 38 34 38 41 39 42 41 40 28 32
53 53 53 52 51 51 51 51 51 52 53 54 47 45 48 41 44 46 50 52 50 49 54 55 52 52 49 42 42 42 45 47 50 50 47 46 38 38 38 39 40 40 40 40 39 38 35
54 53 52 52 50 50 50 51 51 52 53 52 48 46 46 43 49 48 45 49 50 51 51 50 51 48 49 46 48 44 46 45 45 46 43 44 36 36 35 37 37 37 40 40 39 38 38
53 52 51 50 50 50 50 50 52 52 55 52 50 52 50 41 43 44 44 49 52 53 51 52 52 48 44 47 48 47 47 47 47 45 41 39 34 33 29 32 33 29 37 39 40 41 40
52 52 50 50 50 50 50 49 50 52 54 55 52 51 44 36 41 46 50 51 51 51 50 49 51 47 49 51 50 50 48 46 46 43 44 35 32 27 23 26 21 39 43 43 42 42 42
51 51 50 50 50 49 49 49 49 51 51 54 52 51 44 33 43 46 49 47 48 47 46 47 48 49 52 47 39 39 34 38 38 40 39 40 31 25 22 24 34 41 41 40 40 40 43
50 50 50 50 49 50 50 49 48 49 49 54 52 51 48 41 43 50 47 47 43 41 43 45 50 50 47 35 33 29 30 36 35 37 41 39 34 30 20 19 19 37 42 46 45 33 43
49 50 50 50 50 51 50 50 51 51 52 55 53 54 51 44 46 48 46 47 47 44 39 44 46 45 45 28 23 25 30 38 32 30 29 28 24 23 15 16 29 39 44 46 33 35 41
49 49 49 51 50 50 50 50 51 51 52 58 53 54 52 45 47 50 51 48 47 45 41 45 43 41 34 32 27 27 25 32 32 36 33 31 28 27 23 15 25 44 44 39 41 39 42
49 49 50 51 50 51 50 50 51 52 53 56 54 54 53 50 49 52 52 52 51 52 46 44 46 43 42 33 26 26 26 32 29 28 37 32 36 31 33 32 42 44 41 41 42 42 40

GFSGBSN_sfc_temp_045.txt.gz
Temp
63 63 62 62 61 61 61 61 60 59 58 58 58 58 59 59 59 59 58 58 58 58 58 58 59 59 58 60 63 73 66 68 71 73 72 69 67 67 64 66 67 65 67 68 70 68 68
62 61 61 61 61 61 61 61 60 59 58 58 58 58 58 58 58 58 57 57 57 57 57 58 59 59 58 57 77 74 70 70 72 72 71 71 70 72 68 67 67 67 66 65 67 68 69
62 61 61 60 60 60 60 59 59 58 58 58 58 57 57 57 57 57 57 57 56 57 57 58 59 59 58 63 77 74 73 73 73 73 71 72 74 72 71 66 69 67 63 64 66 67 67
62 61 61 60 59 59 59 58 58 58 58 58 58 57 57 56 56 56 56 56 56 57 57 58 59 58 58 75 75 74 75 77 74 75 75 77 75 72 70 70 66 64 63 58 65 66 64
61 61 61 60 59 59 58 58 57 58 58 58 57 57 56 56 56 56 55 56 56 57 58 58 56 57 60 75 75 80 80 78 77 73 75 77 75 68 68 62 60 60 55 57 61 66 66
61 61 61 60 59 59 58 58 57 57 57 57 57 57 56 56 56 55 54 56 57 57 57 60 62 57 66 70 74 76 80 78 75 73 71 71 66 63 62 61 52 54 55 56 58 63 63
60 61 61 60 59 59 59 58 57 57 57 57 57 56 56 56 56 54 54 55 57 56 56 59 61 61 67 73 74 75 78 76 74 69 63 64 62 59 61 61 61 59 57 57 59 61 57
59 60 60 60 59 59 59 59 57 57 57 57 56 56 56 56 56 55 53 55 61 65 57 61 62 63 67 71 67 72 77 70 67 61 64 62 56 61 61 61 59 58 56 54 57 58 58
57 58 59 59 59 59 59 59 57 57 56 56 56 56 56 56 55 53 52 58 66 67 57 61 63 64 68 70 66 68 73 68 64 61 59 57 60 62 60 58 58 55 55 54 56 57 57
57 56 58 59 59 59 58 58 58 57 56 56 55 55 55 54 54 54 56 65 65 64 50 56 62 67 70 70 65 73 73 69 63 59 59 59 61 59 58 56 58 53 59 57 56 55 51
57 57 57 58 58 57 57 57 57 57 56 55 55 55 54 56 54 56 65 65 64 62 35 58 63 74 69 66 66 67 70 69 60 59 60 56 58 57 56 56 59 55 58 56 54 52 52
56 57 57 57 57 56 56 56 56 56 55 54 53 55 54 54 52 58 63 64 61 47 37 54 63 62 61 63 63 67 66 68 65 59 59 57 63 61 60 58 59 57 56 54 52 51 45
56 56 55 57 57 56 56 56 55 55 54 53 52 54 55 58 57 62 61 59 47 39 55 52 55 60 59 57 58 59 56 56 56 51 50 55 56 60 61 58 59 58 53 44 42 42 42
55 56 55 56 56 56 56 55 55 55 53 52 52 53 54 57 59 60 59 52 41 47 50 57 56 56 54 57 56 56 55 53 56 54 50 48 47 57 59 58 56 53 53 43 36 37 42
55 55 54 55 56 56 55 55 54 54 52 51 53 52 53 57 58 57 54 43 43 49 55 54 56 52 52 56 55 54 52 52 54 56 51 48 48 59 58 59 59 52 48 52 41 39 39
54 55 54 54 55 55 55 54 54 53 52 53 53 52 55 60 59 56 50 44 50 56 58 56 50 52 48 52 52 52 52 55 54 56 58 52 46 55 58 60 58 56 55 46 44 34 34
54 55 54 53 54 54 54 54 53 52 51 53 54 52 57 59 58 53 44 46 53 58 59 56 53 51 52 51 51 50 51 54 56 56 57 54 50 50 55 53 52 52 49 45 47 42 37
53 54 53 52 54 54 54 53 52 52 51 52 50 47 57 56 50 45 45 51 54 57 59 58 57 55 53 52 50 50 50 53 54 57 54 53 48 44 49 55 56 54 51 49 41 39 37
53 53 52 52 53 54 53 52 52 51 53 53 49 50 56 56 42 42 50 54 57 56 56 57 55 56 55 50 47 50 50 54 55 55 52 52 46 40 45 52 54 51 50 47 44 41 38
52 52 52 52 53 53 52 52 51 51 53 55 51 45 50 50 48 49 49 51 53 56 56 57 55 56 52 49 50 47 49 53 54 54 49 52 46 45 42 46 48 46 47 47 47 39 40
52 51 51 52 52 52 52 51 51 51 52 52 50 47 50 43 46 48 53 52 52 51 57 57 54 54 51 45 47 46 50 51 54 50 51 52 45 45 43 43 46 47 46 45 45 45 43
52 51 50 52 52 51 51 51 51 51 52 52 47 47 47 46 49 50 48 50 52 53 54 54 52 52 54 49 51 46 50 49 50 51 49 48 42 43 41 41 42 43 46 45 45 45 46
52 51 52 52 51 51 51 51 51 51 54 52 51 52 52 42 45 46 46 50 52 54 52 53 54 51 49 52 52 50 50 50 51 49 45 44 41 39 36 37 39 36 43 46 45 46 48
52 52 52 51 51 51 50 51 50 52 54 56 53 52 44 38 43 46 50 52 52 54 51 51 53 52 52 54 53 54 51 48 48 45 47 40 37 34 34 31 31 47 48 48 47 47 48
51 52 51 51 50 50 50 50 50 52 53 55 53 53 45 34 44 47 49 48 49 48 48 49 50 51 53 51 44 42 39 40 41 43 43 44 37 30 33 33 40 46 45 45 44 47 50
51 51 50 50 50 50 49 49 50 52 51 55 53 52 50 41 42 51 48 49 45 44 46 46 51 53 49 40 38 35 36 42 40 42 44 42 40 38 30 32 30 44 48 51 52 41 50
50 50 50 50 49 49 49 49 49 51 50 55 53 54 53 45 48 50 48 48 49 46 42 46 49 49 49 36 33 34 38 43 38 35 32 34 32 33 25 32 37 46 50 52 39 43 46
49 50 49 49 49 50 49 49 49 51 51 56 53 54 53 46 48 52 53 49 48 48 44 47 47 45 39 36 34 35 35 38 39 41 38 37 33 30 27 29 32 48 50 44 49 48 48
49 49 49 50 50 50 50 50 51 53 53 55 52 55 54 50 50 53 54 54 54 55 49 46 50 46 46 39 34 33 33 33 35 36 41 38 42 38 39 40 48 49 49 49 49 48 48

GFSGBSN_sfc_temp_048.txt.gz
Temp
63 63 63 62 62 61 62 61 60 59 59 59 59 59 59 59 59 59 59 58 58 59 58 59 59 59 66 68 74 82 68 69 80 83 82 80 76 77 73 76 76 73 73 76 79 76 77
62 62 62 62 62 61 62 61 60 59 59 58 58 58 58 58 58 58 58 57 57 57 58 58 59 59 66 64 87 85 83 82 84 82 82 82 79 82 76 75 75 76 75 75 74 74 74
61 62 61 61 61 61 61 60 60 59 59 58 58 58 58 58 58 57 57 57 57 57 58 59 59 67 66 72 87 87 82 83 86 84 80 84 84 78 78 71 75 73 68 71 72 75 74
61 61 62 61 60 60 59 59 59 59 59 58 58 58 57 57 57 57 57 56 56 57 58 59 59 67 67 85 89 85 89 84 85 86 84 84 84 78 75 76 74 70 71 64 71 75 73
61 60 61 61 60 59 59 59 58 59 58 58 58 57 57 56 56 56 56 56 57 58 58 59 65 66 69 81 82 89 89 84 82 81 82 82 81 75 74 71 67 68 62 65 65 73 73
61 61 60 61 60 59 59 58 58 58 58 57 57 57 57 56 56 55 55 56 57 59 63 68 70 63 75 77 83 84 90 87 83 78 75 75 75 72 72 70 59 62 63 65 65 69 74
60 61 60 60 60 60 59 59 58 57 57 57 57 57 57 56 56 55 59 66 67 65 66 69 71 70 75 83 85 84 87 84 82 79 70 74 70 65 71 72 71 69 67 65 69 70 70
59 60 60 60 60 60 60 59 58 57 57 57 57 57 56 56 56 55 63 67 71 71 66 72 72 71 77 79 74 81 87 78 76 69 72 69 65 69 71 70 69 68 66 64 66 68 69
58 58 58 59 60 60 60 60 58 57 57 57 57 56 56 56 55 58 65 70 77 75 66 69 73 73 76 77 74 77 82 78 73 68 68 68 66 68 69 68 66 66 65 64 65 66 68
57 57 57 58 59 59 59 59 58 57 57 57 56 56 55 54 56 68 65 76 77 73 61 64 69 75 76 78 72 81 82 78 72 67 69 67 69 67 68 65 67 62 66 67 65 65 60
56 56 57 57 57 58 57 57 57 57 57 57 56 55 55 55 64 66 73 78 76 71 44 68 69 83 79 74 75 74 80 77 69 68 67 63 66 66 66 64 66 62 67 66 65 65 63
56 56 56 57 56 56 57 56 56 56 56 56 54 55 54 58 63 69 74 74 71 55 44 61 71 69 70 71 71 74 75 78 74 68 70 67 71 70 67 66 68 68 66 65 65 64 53
55 55 56 56 56 56 56 56 56 56 55 55 53 54 58 68 67 71 72 69 55 47 63 59 63 68 68 65 67 69 68 67 65 59 60 65 65 69 69 65 67 67 63 53 49 50 50
55 55 55 56 55 56 56 56 55 55 55 54 52 53 58 69 73 69 70 61 47 57 60 65 66 67 63 66 64 65 65 63 66 66 63 59 53 64 67 66 64 63 63 53 41 45 52
54 54 55 55 55 55 56 56 55 55 54 53 53 59 63 66 66 68 66 51 54 59 65 63 65 61 60 63 64 64 63 64 65 66 61 58 56 66 65 67 67 60 58 62 51 49 48
54 54 54 55 54 54 55 55 55 54 53 52 62 61 66 70 68 66 59 52 61 65 66 67 58 63 57 61 61 62 62 64 63 64 67 62 54 62 64 67 66 64 66 53 55 40 41
53 53 54 54 54 53 54 55 54 53 52 52 63 59 66 69 70 62 53 58 63 68 68 64 63 59 62 59 63 61 62 62 64 63 67 66 62 57 62 61 61 59 58 58 59 53 46
52 52 53 53 54 53 53 55 54 52 52 52 62 55 63 69 59 62 57 63 58 66 66 66 68 66 63 63 60 61 60 63 64 67 63 63 61 53 58 63 65 64 61 61 51 48 50
52 52 52 53 53 52 53 53 53 52 53 60 60 59 59 62 53 54 62 63 64 64 65 64 64 67 66 62 57 60 61 60 63 64 63 63 58 50 52 59 61 59 61 61 56 54 49
51 52 52 53 53 52 53 53 52 52 53 63 64 53 55 60 67 62 59 60 60 64 65 66 64 65 62 60 61 57 58 59 60 62 50 59 59 57 51 56 60 54 57 59 59 49 52
51 51 52 53 52 52 53 52 52 52 52 59 63 60 64 52 57 61 64 63 60 59 64 67 63 66 64 56 57 57 59 58 60 52 60 62 55 56 54 54 55 57 57 57 56 58 50
51 51 51 52 51 51 52 52 52 51 52 55 59 60 60 61 62 61 56 60 61 60 63 63 64 64 65 61 63 58 61 60 60 59 60 59 53 52 49 51 51 51 56 58 58 59 58
51 51 51 51 51 51 52 51 51 51 54 61 64 65 67 50 57 58 59 62 62 65 59 62 67 63 60 61 62 65 64 65 65 60 57 56 52 49 46 47 48 41 52 57 59 60 59
51 51 52 51 50 51 51 51 51 51 55 70 69 68 60 51 54 60 61 63 62 64 61 60 65 64 58 65 66 65 63 61 61 57 59 51 51 45 42 39 35 57 59 58 59 61 63
51 51 51 51 51 51 51 50 51 51 52 61 67 67 59 41 57 60 60 61 60 59 58 60 58 62 65 63 57 51 50 46 50 54 55 57 51 39 39 43 51 58 56 54 53 57 63
51 51 50 50 51 50 50 51 51 51 52 56 63 63 65 50 50 64 60 61 58 58 56 53 58 62 61 57 51 44 44 51 48 49 53 53 53 49 37 37 35 54 56 59 59 49 60
50 51 50 51 50 50 50 50 50 51 52 58 62 61 68 55 58 61 60 59 63 60 56 55 56 56 59 49 39 42 47 53 47 42 38 41 40 39 40 38 47 58 58 59 45 50 59
50 50 50 50 49 50 50 50 50 50 52 57 58 61 66 56 57 59 61 60 59 63 55 56 57 55 52 44 40 46 43 50 50 53 47 46 41 37 37 35 36 59 56 50 58 60 59
49 49 49 49 49 49 49 49 50 51 52 54 57 60 64 60 57 61 60 60 61 65 63 59 61 59 61 52 47 45 39 38 47 46 52 46 53 50 50 52 57 60 61 61 59 58 59